Location: Baumgarten
(49.0970°N, 12.7493°E)
Time: 18:01:37
(UTC+00:00)

Cosmos 2360 Rocket - Pass Details

Date: 05 July 2020
Orbit: 832 x 846 km, 71.0° (Epoch: 12 August)

Event Time Altitude Azimuth Distance (km) Brightness Sun altitude
Rises 20:32:44 0° 215° (SW) 3,378 5.2 -9.8°
Reaches altitude 10° 20:35:11 10° 218° (SW) 2,449 4.5 -10.0°
Maximum altitude 20:40:46 67° 301° (WNW) 913 2.6 -10.5°
Drops below altitude 10° 20:46:26 10° 25° (NNE) 2,474 5.1 -11.1°
Sets 20:48:55 0° 28° (NNE) 3,415 5.8 -11.3°
